www.pogodaiklimat.ru
Время
и дата
20:51 11.07
21:51 11.07
22:51 11.07
23:51 11.07
00:51 12.07
01:51 12.07
02:51 12.07
03:51 12.07
05:51 12.07
06:51 12.07
07:51 12.07
08:51 12.07
09:51 12.07
10:51 12.07
11:51 12.07
12:51 12.07
13:06 12.07
13:23 12.07
13:37 12.07
13:51 12.07
14:35 12.07
14:51 12.07
16:51 12.07
17:51 12.07
17:53 12.07
17:54 12.07
18:51 12.07
19:51 12.07
20:51 12.07
21:51 12.07
22:08 12.07
22:47 12.07
22:51 12.07
23:51 12.07
00:44 13.07
00:51 13.07
01:40 13.07
01:51 13.07
01:59 13.07
02:51 13.07
03:22 13.07
03:47 13.07
03:51 13.07
04:14 13.07
04:34 13.07
04:39 13.07
04:47 13.07
04:51 13.07
Ветер
(напр.,м/с)
Видим. Явления Облачность Т
(С)
Тd
(С)
f
(%)
Тe
(С)
Тes
(С)
Комфортность P
(гПа)
Po
(гПа)
Тmin
(С)
Tmax
(С)
R
(мм)
R24
(мм)
S
(см)
ЮЗ 2 16 км ясно +22.8 +17.2 71 +28 +28 душно 1018.0 1003.9
Ю 2 16 км ясно +22.2 +17.8 76 +27 +27 душно 1018.5 1004.2
З 2 16 км ясно +20.6 +17.2 81 +25 +25 комфорт 1018.7 1004.5
штиль 0 16 км ясно +20.0 +17.8 87 +23 +23 комфорт 1019.0 1004.9
СЗ 2 16 км ясно +19.4 +17.2 87 +22 +22 комфорт 1019.1 1004.9 +19.4 +25.0
штиль 0 16 км ясно +19.4 +17.8 90 +21 +21 комфорт 1019.0 1004.9
штиль 0 16 км ясно +18.3 +17.2 93 +19 +19 1019.0 1004.9
штиль 0 16 км ясно +18.3 +17.2 93 +19 +19 1019.6 1005.5
В 2 16 км ясно +21.1 +18.3 84 +25 +25 комфорт 1020.6 1006.5
В 2 16 км 8/0 3600 m
[Ac]
+21.1 +18.3 84 +25 +26 комфорт 1021.1 1006.9 +17.8 +21.1
штиль 0 16 км ясно +22.8 +18.3 76 +28 +34 душно 1021.1 1006.9
штиль 0 16 км 2/0 2550 m
[Ac]
+22.8 +18.9 79 +29 +38 очень
душно
1021.7 1007.6
С 2 16 км 2/0 3300 m
[Ac]
+23.3 +20.0 82 +30 +41 очень
душно
1021.1 1006.9 0.5
штиль 0 16 км 10/0 2100 m
[Ac]
+25.0 +20.6 77 +31 +38 очень
душно
1022.8 1008.6
СЗ 4 16 км 5/2 930 m
[Ac]
+26.1 +20.6 72 +33 +40 очень
душно
1021.3 1007.2
штиль 0 16 км 5/5 810 м +26.1 +19.4 67 +32 +45 очень
душно
1021.8 1007.6 +21.1 +26.7 0.5
Ю 2 16 км 8/8 810 м +26.1 +19.4 67 +32 +35 очень
душно
1007.9
ЮЗ 2 16 км слабый дождь 10/10 810 m
[Ns]
+26.1 +19.4 67 +32 +32 очень
душно
1007.6
ЮЗ 2 16 км слабый дождь 10/10 810 m
[Ns]
+25.0 +20.0 74 +31 +31 очень
душно
1007.9
З 2 16 км слабый дождь 10/10 780 m
[Ns]
+24.4 +20.6 79 +30 +30 очень
душно
1021.9 1007.9
С 2 16 км 10/10 840 м +26.1 +20.6 72 +33 +33 очень
душно
1007.2
штиль 0 16 км 5/5 840 м +26.1 +20.0 69 +32 +43 очень
душно
1021.1 1006.9
Ю 3 16 км 10/10 780 м +26.1 +20.6 72 +33 +33 очень
душно
1021.1 1006.9
Ю 2 16 км 5/5 1800 м +25.6 +20.6 74 +32 +34 очень
душно
1021.4 1007.2
штиль 0 16 км 5/5 1800 м +26.0 +21.0 74 +33 +36 очень
душно
1007.2
штиль 0 16 км 5/5 1800 м +26.0 +21.0 74 +33 +36 очень
душно
1007.2
ЮЗ 2 16 км 5/0 2400 m
[Ac]
+24.4 +20.6 79 +30 +31 очень
душно
1021.3 1007.2 +24.4 +27.8 0.3
штиль 0 16 км слабый дождь 8/0 3300 m
[Ac As]
+23.9 +20.0 79 +29 +29 душно 1021.7 1007.6
штиль 0 16 км слабый дождь 5/2 1140 m
[Ac Ns]
+24.4 +21.1 82 +31 +31 очень
душно
1022.0 1007.9
Ю 2 16 км 8/0 2700 m
[Ac]
+23.3 +21.7 91 +32 +32 очень
душно
1022.2 1007.9
ЮВ 2 16 км 8/8 750 m
[Ac]
+23.9 +21.1 84 +30 +30 очень
душно
1007.9
штиль 0 16 км 10/5 690 m
[Ac]
+23.0 +21.0 89 +31 +31 очень
душно
1007.9
С 2 16 км 10/2 690 m
[Ac]
+23.3 +21.1 87 +31 +31 очень
душно
1021.9 1007.9
штиль 0 16 км слабый дождь 10/5 570 m
[Ac Ns]
+22.8 +21.1 90 +30 +30 очень
душно
1021.6 1007.6
ЮВ 2 16 км слабый дождь 10/8 360 m
[Ac Ns]
+23.9 +21.7 88 +31 +31 очень
душно
1006.9
штиль 0 16 км слабый дождь 10/8 360 m
[Ac Ns]
+23.9 +21.7 88 +31 +31 очень
душно
1021.2 1006.9 +22.8 +25.0
штиль 0 13 км слабый дождь 10/10 270 m
[Ns]
+23.3 +21.7 91 +32 +32 очень
душно
1006.9
штиль 0 13 км слабый дождь 10/10 270 m
[Ns]
+22.8 +21.7 94 +31 +31 очень
душно
1021.0 1006.9
штиль 0 13 км слабый дождь 10/10 330 m
[Ns]
+22.8 +21.7 94 +31 +31 очень
душно
1006.9
штиль 0 6 км дождь, дымка 10/10 330 m
[Ns]
+22.8 +21.7 94 +31 +31 очень
душно
1021.0 1006.9
штиль 0 5 км сильный дождь, дымка 10/8 210 m
[Ac Ns]
+22.8 +22.2 96 +31 +31 очень
душно
1006.9
В 2 6 км дождь, дымка 10/10 150 m
[Ns]
+23.0 +22.0 94 +31 +31 очень
душно
1006.9
В 2 6 км дождь, дымка 10/10 150 m
[Ns]
+23.3 +22.2 94 +32 +32 очень
душно
1020.8 1006.9 6.4
Ю 3 2 км сильный дождь, дымка 10/10 150 m
[Ns]
+22.8 +21.7 94 +31 +31 очень
душно
1007.2
штиль 0 2 км сильный дождь, дымка 10/10 120 m
[Ns]
+21.7 +21.1 96 +28 +28 душно 1007.2
Ю 2 5 км дождь, дымка 10/10 120 m
[Ns]
+20.6 +19.4 93 +25 +25 комфорт 1007.2
ЮВ 2 6 км сильный дождь, дымка 10/10 120 m
[Ns]
+21.0 +19.0 88 +26 +26 душно 1007.2
ЮВ 2 6 км дождь, дымка 10/10 570 m
[Ns]
+20.6 +18.9 90 +25 +25 комфорт 1021.3 1007.2
Местоположение метеостанции Lehigh Valley International Airport: широта 40.6508 долгота -75.4492 высота над уровнем моря 119 м.
В архиве по умолчанию представлена погода в Аллентауне за последние 1-2 суток. Обновление информации о фактической погоде в базе происходит ежечасно! Архивные данные за месяц целиком и за предыдущие месяцы Вы можете получить, выбрав интересующий диапазон дат из раскрывающегося списка и нажав кнопку "Ввод!".
Внимание! Архив погоды МЕТАР в базе сайта по станциям, не включенным в климатический монитор, хранится не более 60 дней. Нет смысла пытаться выбрать более раннюю дату.
*Определитесь, кто Вы:
Внимание! Время в таблицах - местное (без учета летнего времени). Для получения всемирного времени необходимо вычесть поправку, которая равна -5 ч.
Смотрите также архив погоды в соседних городах и на ближайших метеорологических станциях:
Партнеры нашего сайта:      
Пояснения к столбцам:
  • Ветер - указаны скорость ветра в м/с - средняя за 10 мин, порывы в срок и между сроками (в фигурных скобках) и направление, откуда дует ветер: С - северный,
  • СВ - северо-восточный, В - восточный, ЮВ - юго-восточный, Ю - южный, ЮЗ - юго-западный, З - западный, СЗ - северо-западный.
  • Видимость - горизонтальная дальность видимости в метрах или километрах. При видимости от 1 до 10 км при отсутствии осадков обычно наблюдается дымка, при ухудшении видимости до 1 км и менее - туман. В сухую погоду видимость может ухудшаться дымом, пылью или мглою.
  • Явления - указаны атмосферные явления, наблюдавшиеся в срок или в последний час перед сроком; фигурными скобками обозначены явления, наблюдавшиеся между сроками (за 1-3 часа до срока); квадратными скобками обозначены град или гололедные отложения с указанием их диаметра в мм.
  • Облачность - указаны через наклонную черту общая и нижняя облачность в баллах и высота нижней границы облаков в метрах; квадратными скобками обозначены формы облаков: Ci - перистые, Cs - перисто-слоистые, Cc - перисто-кучевые, Ac - высококучевые, As - высокослоистые, Sc - слоисто-кучевые, Ns - слоисто-дождевые, Cu - кучевые, Cb - кучево-дождевые. Подробнее классификацию облаков см. в Атласе облаков (PDF).
  • T - Температура воздуха - температура, измеренная на высоте 2 м над землей.
  • Td - Температура точки росы - температура, при понижении до которой содержащийся в воздухе водяной пар достигнет насыщения.
  • f - Относительная влажность воздуха - влажноcть воздуха, измеренная на высоте 2 м над землей.
  • Te - Эффективная температура - температура, которую ощущает одетый по сезону человек в тени. Характеристика душности погоды. При расчете учитывается влияние влажности воздуха и скорости ветра на теплоощущения человека.
  • Tes - Эффективная температура на солнце - температура, которую ощущает человек, с поправкой на солнечный нагрев. Характеристика знойности погоды. Зависит от высоты солнца над горизонтом, облачности и скорости ветра. Ночью, в пасмурную погоду, а также при ветре 12 м/с и более поправка равна нулю.
  • P - Атмосферное давление - приведенное к уровню моря атмосферное давление.
  • Po - Атмосферное давление - измеренное на уровне метеостанции атмосферное давление.
  • Tmin - Минимальная температура - минимум температуры воздуха на высоте 2 м над землей.
  • Tmax - Максимальная температура - максимум температуры воздуха на высоте 2 м над землей.
  • R - Количество осадков - Количество выпавших осадков за период времени, мм. При наведении курсора мыши на число - период времени, за который выпало указанное количество осадков.
  • R24 - Количество осадков - Количество выпавших осадков за 24 часа, мм.
  • S - Снежный покров - Высота снежного покрова, см. При наведении курсора мыши на число - состояние снежного покрова и степень покрытия местности в баллах.